FW4683 Weather Reports


Display with metric or nautical units.
time (UTC)temp
F
wind
direction
speed
MPH
gust
MPH
rain 1hr
in
rain 24hr
in
rain mn
in
humidity
%
barometer
mb
20260504025534 54 96 0.0 1.0 0.00 0.00 0.00 63 1017.3
20260504024543 54 96 0.0 1.0 0.00 0.00 0.00 64 1017.4
20260504024033 55 96 0.0 1.0 0.00 0.00 0.00 63 1017.4
20260504023533 54 96 0.0 1.0 0.00 0.00 0.00 64 1017.4
20260504023034 55 96 0.0 1.0 0.00 0.00 0.00 65 1017.2
20260504022534 55 96 0.0 1.0 0.00 0.00 0.00 64 1017.2
20260504022033 55 96 0.0 2.0 0.00 0.00 0.00 64 1017.2
20260504021536 55 96 0.0 2.0 0.00 0.00 0.00 64 1017.2
20260504021033 56 96 0.0 3.0 0.00 0.00 0.00 63 1017.1
20260504020532 56 96 1.0 3.0 0.00 0.00 0.00 62 1016.9
20260504020033 56 96 0.0 1.0 0.00 0.00 0.00 62 1016.8
20260504015533 56 96 0.0 1.0 0.00 0.00 0.00 63 1016.7
20260504014535 57 96 0.0 2.0 0.00 0.00 0.00 62 1016.6
20260504014035 57 96 0.0 2.0 0.00 0.00 0.00 61 1016.5
20260504013536 57 96 0.0 2.0 0.00 0.00 0.00 61 1016.3
20260504013044 58 96 1.0 2.0 0.00 0.00 0.00 60 1016.3
20260504012535 58 96 0.0 2.0 0.00 0.00 0.00 59 1016.2
20260504012035 58 96 0.0 4.0 0.00 0.00 0.00 59 1016.2
20260504011535 58 96 0.0 4.0 0.00 0.00 0.00 59 1016.1
20260504011035 59 96 1.0 3.0 0.00 0.00 0.00 58 1016.0
20260504010535 59 96 0.0 2.0 0.00 0.00 0.00 57 1016.0
20260504010034 60 96 1.0 2.0 0.00 0.00 0.00 55 1016.0
20260504005534 61 96 0.0 2.0 0.00 0.00 0.00 53 1016.0
20260504004542 62 96 0.0 4.0 0.00 0.00 0.00 51 1015.8
20260504004035 62 96 1.0 4.0 0.00 0.00 0.00 50 1015.8
20260504003534 62 96 0.0 7.0 0.00 0.00 0.00 49 1015.7
20260504003034 63 96 2.0 7.0 0.00 0.00 0.00 49 1015.7
20260504002533 63 96 1.0 7.0 0.00 0.00 0.00 49 1015.7
20260504002038 63 96 1.0 7.0 0.00 0.00 0.00 48 1015.7
20260504001534 63 96 1.0 6.0 0.00 0.00 0.00 48 1015.7
20260504001034 63 96 2.0 6.0 0.00 0.00 0.00 47 1015.6
20260504000534 64 96 0.0 6.0 0.00 0.00 0.00 47 1015.5
20260504000033 64 96 1.0 10.0 0.00 0.00 0.00 47 1015.6
20260503235534 64 96 2.0 11.0 0.00 0.00 0.00 46 1015.5
20260503234530 65 96 6.0 10.0 0.00 0.00 0.00 46 1015.4
20260503234031 65 96 6.0 11.0 0.00 0.00 0.00 46 1015.4
20260503233529 65 96 7.0 14.0 0.00 0.00 0.00 45 1015.3
20260503233033 66 96 9.0 14.0 0.00 0.00 0.00 44 1015.3
20260503232530 66 96 6.0 13.0 0.00 0.00 0.00 44 1015.3
20260503232030 66 96 7.0 13.0 0.00 0.00 0.00 44 1015.3
20260503231530 66 96 8.0 14.0 0.00 0.00 0.00 43 1015.2
20260503231030 67 96 8.0 15.0 0.00 0.00 0.00 43 1015.3
20260503230529 67 96 10.0 15.0 0.00 0.00 0.00 42 1015.2
20260503230030 67 96 6.0 13.0 0.00 0.00 0.00 42 1015.3
20260503225529 67 96 9.0 13.0 0.00 0.00 0.00 41 1015.3
20260503224529 68 96 9.0 13.0 0.00 0.00 0.00 40 1015.3
20260503224029 68 96 7.0 13.0 0.00 0.00 0.00 39 1015.4
20260503223529 69 96 9.0 13.0 0.00 0.00 0.00 38 1015.4
20260503223029 69 96 4.0 12.0 0.00 0.00 0.00 33 1015.3
20260503222528 70 96 6.0 12.0 0.00 0.00 0.00 31 1015.3
20260503222027 70 96 1.0 7.0 0.00 0.00 0.00 26 1015.4
20260503221528 70 96 3.0 7.0 0.00 0.00 0.00 26 1015.3
20260503221031 70 96 1.0 6.0 0.00 0.00 0.00 26 1015.4
20260503220527 70 96 0.0 8.0 0.00 0.00 0.00 26 1015.4
20260503220030 69 96 2.0 8.0 0.00 0.00 0.00 26 1015.5
20260503215527 70 96 2.0 10.0 0.00 0.00 0.00 26 1015.4
20260503214525 71 96 1.0 6.0 0.00 0.00 0.00 25 1015.6
20260503214026 70 96 1.0 7.0 0.00 0.00 0.00 26 1015.6
20260503213526 70 96 3.0 7.0 0.00 0.00 0.00 25 1015.6
20260503213028 70 96 2.0 7.0 0.00 0.00 0.00 25 1015.8
20260503212524 70 96 1.0 10.0 0.00 0.00 0.00 25 1015.8
20260503212023 70 96 6.0 10.0 0.00 0.00 0.00 24 1015.8
20260503211534 71 96 1.0 7.0 0.00 0.00 0.00 25 1016.0
20260503211022 70 96 2.0 10.0 0.00 0.00 0.00 25 1015.9
20260503210520 69 96 1.0 10.0 0.00 0.00 0.00 25 1016.0
20260503210019 69 96 5.0 10.0 0.00 0.00 0.00 25 1016.0
20260503205526 68 96 5.0 12.0 0.00 0.00 0.00 28 1016.1
20260503204519 68 96 3.0 10.0 0.00 0.00 0.00 28 1016.2
20260503204017 69 96 5.0 10.0 0.00 0.00 0.00 28 1016.2
20260503203517 68 96 1.0 12.0 0.00 0.00 0.00 28 1016.4
20260503203019 67 96 0.0 16.0 0.00 0.00 0.00 29 1016.4
20260503202516 67 96 8.0 16.0 0.00 0.00 0.00 30 1016.5
20260503202015 67 96 3.0 8.0 0.00 0.00 0.00 29 1016.6
20260503201515 67 96 2.0 9.0 0.00 0.00 0.00 32 1016.6
20260503201013 67 96 4.0 12.0 0.00 0.00 0.00 32 1016.8
20260503200514 66 96 4.0 0.0 0.00 0.00 0.00 32 1016.8
20260503200013 66 96 5.0 12.0 0.00 0.00 0.00 34 1016.9
20260503195514 65 96 10.0 16.0 0.00 0.00 0.00 35 1017.1
20260503194511 65 96 9.0 15.0 0.00 0.00 0.00 36 1017.3
20260503194011 65 96 7.0 11.0 0.00 0.00 0.00 36 1017.4
20260503193511 65 96 4.0 11.0 0.00 0.00 0.00 38 1017.4
20260503193028 65 96 5.0 12.0 0.00 0.00 0.00 37 1017.5
20260503192509 65 96 5.0 12.0 0.00 0.00 0.00 37 1017.5
20260503192010 65 96 4.0 12.0 0.00 0.00 0.00 38 1017.5
20260503191509 65 96 3.0 9.0 0.00 0.00 0.00 38 1017.7
20260503191009 64 96 4.0 14.0 0.00 0.00 0.00 39 1017.8
20260503190510 64 96 10.0 14.0 0.00 0.00 0.00 38 1017.9
20260503190018 64 96 3.0 11.0 0.00 0.00 0.00 39 1017.8
20260503185507 64 96 4.0 10.0 0.00 0.00 0.00 39 1018.0
20260503184508 63 96 6.0 9.0 0.00 0.00 0.00 40 1018.3
20260503184007 63 96 2.0 12.0 0.00 0.00 0.00 41 1018.3
20260503183508 63 96 7.0 12.0 0.00 0.00 0.00 41 1018.3
20260503183007 63 96 1.0 10.0 0.00 0.00 0.00 41 1018.4
20260503182509 63 96 5.0 9.0 0.00 0.00 0.00 41 1018.6
20260503182011 63 96 2.0 7.0 0.00 0.00 0.00 41 1018.7
20260503181506 63 96 4.0 8.0 0.00 0.00 0.00 40 1018.8
20260503181007 63 96 4.0 10.0 0.00 0.00 0.00 41 1018.9
20260503180505 62 96 2.0 11.0 0.00 0.00 0.00 41 1018.9
20260503180004 62 96 6.0 11.0 0.00 0.00 0.00 42 1018.9
20260503175502 62 96 3.0 10.0 0.00 0.00 0.00 42 1018.9
20260503174502 61 96 1.0 10.0 0.00 0.00 0.00 41 1019.1
20260503174002 60 96 2.0 14.0 0.00 0.00 0.00 42 1019.1
20260503173504 61 96 5.0 13.0 0.00 0.00 0.00 41 1019.2
20260503173003 60 96 6.0 11.0 0.00 0.00 0.00 41 1019.2
20260503172601 61 96 6.0 10.0 0.00 0.00 0.00 42 1019.2
20260503172500 61 96 5.0 10.0 0.00 0.00 0.00 41 1019.2
20260503172100 60 96 1.0 7.0 0.00 0.00 0.00 41 1019.3
20260503171603 59 96 0.0 9.0 0.00 0.00 0.00 42 1019.5
20260503171059 59 96 6.0 11.0 0.00 0.00 0.00 42 1019.6
20260503170559 59 96 8.0 13.0 0.00 0.00 0.00 42 1019.6
20260503150547 55 96 6.0 13.0 0.00 0.00 0.00 45 1020.8
20260503131035 49 96 2.0 7.0 0.00 0.00 0.00 61 1020.6
20260503130535 49 96 1.0 6.0 0.00 0.00 0.00 63 1020.6
20260503110530 41 96 0.0 3.0 0.00 0.00 0.00 79 1019.7
20260503090509 45 96 7.0 13.0 0.00 0.00 0.00 68 1018.1
20260503081502 43 96 0.0 0.0 0.00 0.00 0.00 73 1017.6
20260503081001 44 96 0.0 0.0 0.00 0.00 0.00 73 1017.6
20260503080601 44 96 0.0 0.0 0.00 0.00 0.00 73 1017.5
20260503072553 48 96 1.0 9.0 0.00 0.00 0.00 61 1017.1
20260503072053 48 96 1.0 11.0 0.00 0.00 0.00 60 1017.0
20260503071552 48 96 6.0 11.0 0.00 0.00 0.00 60 1016.9
20260503071050 48 96 5.0 16.0 0.00 0.00 0.00 60 1016.9
20260503070549 49 96 9.0 16.0 0.00 0.00 0.00 59 1016.8
20260503055041 50 95 5.0 11.0 0.00 0.00 0.00 56 1016.7
20260503054542 50 96 5.0 11.0 0.00 0.00 0.00 56 1016.7
20260503054041 50 95 7.0 13.0 0.00 0.00 0.00 57 1016.7
20260503053539 49 96 4.0 13.0 0.00 0.00 0.00 58 1016.8
20260503053038 49 95 2.0 8.0 0.00 0.00 0.00 58 1016.8
20260503052535 49 95 1.0 14.0 0.00 0.00 0.00 59 1016.8
20260503052036 48 95 1.0 7.0 0.00 0.00 0.00 60 1016.8
20260503051534 48 95 1.0 7.0 0.00 0.00 0.00 61 1016.6
20260503051033 48 95 1.0 6.0 0.00 0.00 0.00 62 1016.6
20260503050533 47 95 0.0 3.0 0.00 0.00 0.00 64 1016.5
20260503050031 47 95 0.0 3.0 0.00 0.00 0.00 64 1016.6
20260503045531 48 95 0.0 3.0 0.00 0.00 0.00 63 1016.5
20260503045031 48 96 0.0 1.0 0.00 0.00 0.00 62 1016.5
20260503044529 48 96 0.0 1.0 0.00 0.00 0.00 62 1016.6
20260503044028 48 95 0.0 1.0 0.00 0.00 0.00 62 1016.5
20260503043531 48 95 0.0 1.0 0.00 0.00 0.00 61 1016.5
20260503043027 49 96 0.0 2.0 0.00 0.00 0.00 60 1016.4
20260503042525 49 95 1.0 2.0 0.00 0.00 0.00 59 1016.4
20260503042027 50 96 0.0 4.0 0.00 0.00 0.00 57 1016.3
20260503041525 50 95 1.0 4.0 0.00 0.00 0.00 57 1016.2
20260503041024 50 96 0.0 8.0 0.00 0.00 0.00 57 1016.3
20260503040524 50 95 2.0 10.0 0.00 0.00 0.00 56 1016.1
20260503040024 50 95 4.0 9.0 0.00 0.00 0.00 56 1016.1
20260503035523 50 95 2.0 13.0 0.00 0.00 0.00 56 1016.1
20260503035022 50 95 2.0 11.0 0.00 0.00 0.00 58 1016.0
20260503034522 50 95 1.0 7.0 0.00 0.00 0.00 58 1016.0
20260503034025 50 95 0.0 7.0 0.00 0.00 0.00 58 1015.8
20260503033521 50 95 0.0 7.0 0.00 0.00 0.00 59 1015.8
20260503033027 49 95 0.0 1.0 0.00 0.00 0.00 62 1015.9
20260503032520 49 95 0.0 2.0 0.00 0.00 0.00 61 1015.8
20260503032020 49 96 0.0 2.0 0.00 0.00 0.00 61 1015.7
20260503031520 49 95 0.0 2.0 0.00 0.00 0.00 61 1015.8
20260503031050 49 95 0.0 2.0 0.00 0.00 0.00 61 1015.7
20260503030522 49 95 0.0 2.0 0.00 0.00 0.00 62 1015.7
20260503030018 50 96 0.0 3.0 0.00 0.00 0.00 62 1015.7